User: anonymous
Location: Goheenville
(40.9070°N, 79.3720°W)
Time: 18:59:17
(UTC-04:00)
Language:

Cosmos 1727 Rocket - Orbit

View from above orbital plane
View from above orbital plane
View from above satellite
View from above satellite

Ground track
Ground track

The orbit data is extracted from the following two-line orbital elements,

1 16511U 86008B   14236.49755891  .00000117  00000-0  10520-3 0  5604
2 16511 082.9414 262.0140 0022801 272.7724 242.4174 13.75771318434966
Epoch (UTC): 24 August 2014 11:56:29
Eccentricity: 0.0022801
inclination: 82.9414°
perigee height: 962 km
apogee height: 996 km
right ascension of ascending node: 262.0140°
argument of perigee: 272.7724°
revolutions per day: 13.75771318
mean anomaly at epoch: 242.4174°
orbit number at epoch: 43496

The dashed part of the orbit path shows where the satellite is in the earth's shadow,  

DLR